Location: Baia de Cri?
(46.1667°N, 22.7167°E)
Time: 22:06:42
(UTC+00:00)

IGS 5A - Visible Passes

Search period start: 18 April 2026 00:00
Search period end: 28 April 2026 00:00
Orbit: 551 x 554 km, 97.4° (Epoch: 8 January)

Date Brightness Start Highest point End Pass type
(mag) Time Alt. Az. Time Alt. Az. Time Alt. Az.
20 Apr 6.5 03:03:00 10° ENE 03:05:07 14° E 03:07:15 10° ESE visible
21 Apr 6.6 02:59:02 10° ENE 03:00:49 13° E 03:02:35 10° ESE visible
22 Apr 6.8 02:55:11 10° ENE 02:56:29 11° E 02:57:47 10° ESE visible
23 Apr 7.1 02:51:46 10° E 02:52:08 10° E 02:52:30 10° E visible
